Orbital Elements
Epoch 2003 Jan. 1.0 TT = JDT 2452640.5
T 2002 Dec. 23.87138 TT Muraoka
q 2.0416571 (2000.0) P Q
n 0.11207217 Peri. 119.87585 +0.44926718 +0.89332395
a 4.2606010 Node 176.75564 -0.87353245 +0.44193137
e 0.5208054 Incl. 11.68264 -0.18735011 +0.08166389
P 8.79
From 69 observations 1985-1997, mean residual 0".88.
|